Simultaneous Nadir Overpasses (SNOs) Predictions

Prediction of SNOs between NOAA-19 and TERRA Satellite Orbit:

Table of predicted SNOs for the next 14.0 days since TLE Epoch: 6/23/2018
Index Date (NOAA-19) Time (NOAA-19) Lat,Lon (NOAA-19) SZA (NOAA-19 ) Date (TERRA) Time (TERRA) Lat,Lon (TERRA) SZA (TERRA ) Distance(km) Time Diff (sec)
1 06/23/2018 04:16:17 77.12, 132.54 54.19 06/23/2018 04:15:52 77.14, 132.60 54.20 2.51 25
2 06/25/2018 08:58:57 77.33, 60.94 54.37 06/25/2018 09:00:09 77.18, 61.71 54.30 25.17 72
3 06/25/2018 09:49:56 -77.14,-130.92 125.76 06/25/2018 09:49:38 -77.11,-130.93 125.79 3.47 18
4 06/27/2018 14:32:42 -77.62, 156.18 125.37 06/27/2018 14:33:47 -77.53, 159.65 125.21 83.52 65
5 06/27/2018 15:23:28 77.14, -34.21 54.32 06/27/2018 15:23:21 77.15, -34.24 54.32 1.06 7
6 06/29/2018 20:57:06 -77.17, 62.34 125.56 06/29/2018 20:57:06 -77.18, 62.43 125.54 2.43 0
7 07/02/2018 02:30:39 77.17, 159.00 54.60 07/02/2018 02:30:50 77.16, 158.94 54.58 2.16 11
8 07/02/2018 03:21:32 -76.78, -32.02 125.65 07/02/2018 03:20:25 -76.81, -34.71 125.84 68.33 67
9 07/04/2018 08:04:16 -77.20,-104.47 125.21 07/04/2018 08:04:35 -77.19,-104.37 125.21 2.63 19
10 07/04/2018 08:55:14 77.15, 63.04 54.76 07/04/2018 08:54:02 77.12, 63.00 54.71 3.07 72
11 07/06/2018 13:37:50 77.22, -7.85 55.01 07/06/2018 13:38:18 77.22, -7.70 55.03 3.73 28




NCC Satellite Simultaneous Nadir Overpasses (SNOs) Prediction Service
